Regional Weather Roundup
Issued by NWS

Home | Current Version | Previous Version | Graphics & Text | Print | Product List | Glossary On
Versions: 1 2 3 4 5 6 7 8 9 10 11 12 13 14 15 16 17 18 19 20 21 22 23 24 25 26 27 28 29 30 31 32 33 34 35 36 37 38 39 40 41 42 43 44 45 46 47 48 49 50
000
ASUS45 KBOU 010910
RWRCO

WEATHER ROUNDUP FOR COLORADO
NATIONAL WEATHER SERVICE PUEBLO CO
300 AM MDT SAT AUG 01 2015

NOTE: "FAIR" INDICATES FEW OR NO CLOUDS BELOW 12000 FEET WITH NO
SIGNIFICANT WEATHER AND/OR OBSTRUCTIONS TO VISIBILITY.

COZ001>005-013-030-031-011000-
...NORTHWEST COLORADO...

CITY           SKY/WX    TMP DP  RH WIND       PRES   REMARKS
CRAIG          CLEAR     50  37  61 NE3       30.26R
HAYDEN         CLEAR     55  32  41 E12       30.28S
MEEKER         CLEAR     51  34  52 NE3       30.29S
MOUNT WERNER   NOT AVBL
STEAMBOAT SPGS FAIR      51  38  62 CALM      30.31S
WALDEN         FAIR      45  37  76 SE5       30.41S
$$

COZ006>008-011-011000-
...WEST CENTRAL VALLEYS...

CITY           SKY/WX    TMP DP  RH WIND       PRES   REMARKS
GRAND JUNCTION PTCLDY    72  47  40 E13       30.16S
MONTROSE       PTCLDY    63  48  58 SE6       30.27F
EAGLE          CLEAR     59  39  47 S3        30.33S
RIFLE          CLEAR     63  37  38 CALM      30.23S
DELTA          NOT AVBL
NUCLA          FAIR      64  46  52 E7        30.32S
$$

COZ017>023-064>068-011000-
...SOUTHWEST COLORADO...

CITY           SKY/WX    TMP DP  RH WIND       PRES   REMARKS
DURANGO        CLOUDY    61  54  77 SW3       30.36F
CORTEZ         MOCLDY    63  60  90 CALM      30.29F
PAGOSA SPRINGS CLOUDY    59  51  75 CALM      30.44S
TELLURIDE      CLOUDY    57  48  73 SE3       30.53F
WOLF CREEK PAS NOT AVBL
$$

COZ009-010-012-014-032>034-037-058>063-011000-
...CENTRAL COLORADO...

CITY           SKY/WX    TMP DP  RH WIND       PRES   REMARKS
ASPEN          PTCLDY    56  43  61 SW8       30.39F
BUENA VISTA    FAIR      51  46  84 W3        30.46R
COPPER MTN     CLEAR     54  39  58 S18       30.72F
BERTHOUD PASS  FAIR      45  34  65 W9        30.75F
COTTONWOOD PAS PTCLDY    55  43  62 CALM      30.57S
GUNNISON       PTCLDY    54  45  71 N3        30.47S
KREMMLING      CLEAR     54  41  62 CALM      30.39S
LEADVILLE      CLEAR     43  42  97 NE6       30.56F
MONARCH PASS   PTCLDY    45  37  76 SW16      30.82S
SALIDA         NOT AVBL
NIWOT RIDGE    NOT AVBL
SUNLIGHT       CLEAR     54  37  54 CALM      30.64F
WILKERSON PASS PTCLDY    46  43  87 SW8       30.68F
$$

COZ069>075-011000-
...SAN LUIS VALLEY/SANGRE DE CRISTO MOUNTAINS...

CITY           SKY/WX    TMP DP  RH WIND       PRES   REMARKS
ALAMOSA        CLOUDY    58  52  80 S3        30.42S
LA VETA PASS   CLOUDY    52  45  76 MISG      30.59F
SAGUACHE       MOCLDY    52  48  87 NW3       30.46S
$$

COZ035-036-038>040-011000-
...NORTHERN COLORADO FRONT RANGE...

CITY           SKY/WX    TMP DP  RH WIND       PRES   REMARKS
DENVER INTL AP PTCLDY    66  51  58 S14       30.20F
DMNS CITY PARK NOT AVBL
AURORA         PTCLDY    67  53  59 S15       30.22F
FRONT RANGE AP FAIR      63  50  63 S8        30.22F
ERIE MUNI ARPT FAIR      65  52  62 S5        30.18S
BOULDER MUN AP FAIR      66  52  59 SW3       30.18F
CENTENNIAL     PTCLDY    66  52  60 SE9       30.24F
BROOMFIELD     CLEAR     66  50  55 SW3       30.22S
LOVELAND       CLEAR     63  54  72 N7        30.19S
LONGMONT       FAIR      61  53  74 W3        30.19F
$$

COZ041-046-047-076>085-087-088-011000-
...PIKES PEAK/PALMER DIVIDE AND SOUTHERN FOOTHILLS...

CITY           SKY/WX    TMP DP  RH WIND       PRES   REMARKS
COLO. SPRINGS  PTCLDY    62  52  69 CALM      30.32S
A. F. ACADEMY  CLEAR     54  50  86 N5        30.33S
ELLICOTT       FAIR       1  32 100 SE13G22   30.30F WCI -17
FALCON         FAIR      59  51  74 S3        30.36F
FORT CARSON    PTCLDY    58  52  80 N7        30.28S
LIMON          CLEAR     55  53  93 SE5       30.26F
MONUMENT HILL  CLEAR     55  52  88 SW8       30.35F
TRINIDAD       CLOUDY    67  55  65 W3        30.27F
$$

COZ042>045-048>051-090-091-011000-
...NORTHEAST COLORADO...

CITY           SKY/WX    TMP DP  RH WIND       PRES   REMARKS
GREELEY ARPT   CLEAR     63  54  72 NE5       30.17F
AKRON          CLEAR     66  57  72 S9        30.20F
BURLINGTON     CLEAR     64  59  83 S10       30.21F
WRAY           FAIR      64  58  82 SW7       30.16S
STERLING       FAIR      63  55  77 S5        30.15S
HOLYOKE        NOT AVBL
FORT MORGAN    FAIR      65  55  68 SE6       30.19S
$$

COZ086-089-092>099-011000-
...SOUTHEAST COLORADO...

CITY           SKY/WX    TMP DP  RH WIND       PRES   REMARKS
PUEBLO         CLEAR     67  55  65 NW5       30.21F
LA JUNTA       CLEAR     67  61  81 E5        30.18F
LAMAR          CLEAR     67  63  87 CALM      30.16F
SPRINGFIELD      N/A     64  64 100 S5        30.21F
$$




USA.gov is the U.S. government's official web portal to all federal, state and local government web resources and services.